DW6659 Weather Reports


time (UTC)temp
C
wind
direction
speed
KPH
gust
KPH
rain 1hr
cm
rain 24hr
cm
rain mn
cm
humidity
%
barometer
mb
20260506051402 11 0 0.0 0.0 0.00 0.00 0.00 95 1017.2
20260506050901 11 0 0.0 0.0 0.00 0.00 0.00 94 1017.2
20260506050401 11 0 0.0 0.0 0.00 0.00 0.00 94 1017.0
20260506044901 11 0 0.0 0.0 0.00 0.00 0.00 94 1016.8
20260506044401 11 0 0.0 0.0 0.00 0.00 0.00 94 1016.8
20260506043902 11 0 0.0 0.0 0.00 0.00 0.00 94 1016.7
20260506043401 11 0 0.0 0.0 0.00 0.00 0.00 94 1016.7
20260506042901 11 0 0.0 0.0 0.00 0.00 0.00 93 1016.6
20260506042401 11 0 0.0 0.0 0.00 0.00 0.00 93 1016.6
20260506041902 11 0 0.0 0.0 0.00 0.00 0.00 93 1016.6
20260506041402 12 0 0.0 0.0 0.00 0.00 0.00 93 1016.5
20260506040901 12 0 0.0 0.0 0.00 0.00 0.00 93 1016.5
20260506040401 12 0 0.0 0.0 0.00 0.00 0.00 92 1016.5
20260506035901 12 0 0.0 0.0 0.00 0.00 0.00 91 1016.5
20260506035401 12 0 0.0 0.0 0.00 0.00 0.00 91 1016.4
20260506034901 12 0 0.0 0.0 0.00 0.00 0.00 91 1016.3
20260506034402 13 0 0.0 0.0 0.00 0.00 0.00 90 1016.2
20260506033901 13 0 0.0 0.0 0.00 0.00 0.00 89 1016.1
20260506033402 13 0 0.0 0.0 0.00 0.00 0.00 89 1016.0
20260506032401 14 0 0.0 0.0 0.00 0.00 0.00 87 1016.0
20260506031902 14 0 0.0 0.0 0.00 0.00 0.00 87 1015.9
20260506031401 15 0 0.0 0.0 0.00 0.00 0.00 87 1015.9
20260506030401 15 0 0.0 0.0 0.00 0.00 0.00 86 1015.8
20260506025902 15 0 0.0 0.0 0.00 0.00 0.00 85 1015.7
20260506025402 15 0 0.0 0.0 0.00 0.00 0.00 84 1015.7
20260506024902 15 0 0.0 0.0 0.00 0.00 0.00 84 1015.8
20260506024401 15 0 0.0 0.0 0.00 0.00 0.00 83 1015.7
20260506023901 15 0 0.0 0.0 0.00 0.00 0.00 83 1015.6
20260506023401 16 0 0.0 0.0 0.00 0.00 0.00 83 1015.7
20260506022902 16 0 0.0 0.0 0.00 0.00 0.00 82 1015.7
20260506022401 16 0 0.0 0.0 0.00 0.00 0.00 82 1015.7
20260506021902 16 0 0.0 0.0 0.00 0.00 0.00 82 1015.7
20260506021402 16 0 0.0 0.0 0.00 0.00 0.00 82 1015.6
20260506020902 16 0 0.0 0.0 0.00 0.00 0.00 82 1015.6
20260506015402 16 0 0.0 1.6 0.00 0.00 0.00 81 1015.6
20260506014901 16 0 0.0 1.6 0.00 0.00 0.00 81 1015.6
20260506014402 16 0 0.0 1.6 0.00 0.00 0.00 81 1015.6
20260506013902 16 0 0.0 1.6 0.00 0.00 0.00 81 1015.6
20260506013403 16 0 0.0 0.0 0.00 0.00 0.00 81 1015.5
20260506012902 16 0 0.0 1.6 0.00 0.00 0.00 80 1015.6
20260506012403 16 0 0.0 1.6 0.00 0.00 0.00 80 1015.6
20260506011902 16 0 0.0 1.6 0.00 0.00 0.00 80 1015.6
20260506011402 16 0 0.0 1.6 0.00 0.00 0.00 81 1015.6
20260506010402 16 0 0.0 0.0 0.00 0.00 0.00 80 1015.5
20260506005902 16 0 0.0 1.6 0.00 0.00 0.00 80 1015.6
20260506004902 16 109 1.6 3.2 0.00 0.00 0.00 80 1015.6
20260506004402 16 108 1.6 3.2 0.00 0.00 0.00 79 1015.6
20260506003902 16 108 1.6 3.2 0.00 0.00 0.00 79 1015.7
20260506002902 16 143 1.6 3.2 0.00 0.00 0.00 78 1015.6
20260506001901 16 0 0.0 3.2 0.00 0.00 0.00 79 1015.6
20260506001403 16 0 0.0 1.6 0.00 0.00 0.00 79 1015.7
20260506000403 16 62 1.6 4.8 0.00 0.00 0.00 79 1015.8
20260505235902 16 90 1.6 4.8 0.00 0.00 0.00 80 1015.9
20260505235402 16 136 3.2 6.4 0.00 0.00 0.00 79 1015.9
20260505233902 16 171 1.6 6.4 0.00 0.00 0.00 80 1016.0
20260505233402 16 199 1.6 6.4 0.00 0.00 0.00 80 1016.0
20260505232902 16 255 1.6 3.2 0.00 0.00 0.00 80 1016.0
20260505231902 16 275 1.6 6.4 0.00 0.00 0.00 79 1016.1
20260505231403 16 0 0.0 1.6 0.00 0.00 0.00 80 1016.0
20260505230902 16 0 0.0 1.6 0.00 0.00 0.00 80 1016.1
20260505230403 16 0 0.0 3.2 0.00 0.00 0.00 81 1016.1
20260505225902 16 355 1.6 8.0 0.00 0.00 0.00 82 1016.1
20260505225402 16 337 1.6 8.0 0.00 0.00 0.00 81 1016.1
20260505224402 16 326 3.2 8.0 0.00 0.00 0.00 80 1016.3
20260505223902 16 328 3.2 4.8 0.00 0.00 0.00 81 1016.3
20260505223402 16 305 1.6 4.8 0.00 0.00 0.00 80 1016.3
20260505222902 16 292 1.6 4.8 0.00 0.00 0.00 81 1016.3
20260505222402 16 9 1.6 4.8 0.00 0.00 0.00 80 1016.3
20260505221902 16 123 1.6 4.8 0.00 0.00 0.00 80 1016.3
20260505221403 16 218 1.6 3.2 0.00 0.00 0.00 80 1016.4
20260505220902 16 0 0.0 3.2 0.00 0.00 0.00 80 1016.4
20260505220403 16 0 0.0 3.2 0.00 0.00 0.00 80 1016.4
20260505215903 16 0 0.0 3.2 0.00 0.00 0.00 81 1016.5
20260505215402 16 315 1.6 8.0 0.00 0.00 0.00 82 1016.5
20260505214902 15 324 3.2 8.0 0.00 0.00 0.00 83 1016.5
20260505214402 15 332 3.2 6.4 0.00 0.00 0.00 82 1016.4
20260505213902 15 342 1.6 6.4 0.00 0.00 0.00 81 1016.5
20260505213402 15 348 1.6 3.2 0.00 0.00 0.00 82 1016.5
20260505212902 15 41 3.2 6.4 0.00 0.00 0.00 82 1016.5
20260505212401 15 35 3.2 6.4 0.00 0.00 0.00 83 1016.5
20260505211402 15 331 1.6 6.4 0.00 0.00 0.00 81 1016.5
20260505210902 15 234 1.6 4.8 0.00 0.00 0.00 81 1016.5
20260505210403 15 90 1.6 4.8 0.00 0.00 0.00 82 1016.5
20260505205902 15 59 3.2 6.4 0.00 0.00 0.00 82 1016.5
20260505204902 15 66 3.2 8.0 0.00 0.00 0.00 81 1016.6
20260505204402 15 72 4.8 12.9 0.00 0.00 0.00 82 1016.6
20260505203902 15 88 4.8 12.9 0.00 0.00 0.00 82 1016.6
20260505203402 16 67 3.2 12.9 0.00 0.00 0.00 80 1016.6
20260505202902 16 274 3.2 6.4 0.00 0.00 0.00 80 1016.6
20260505201902 16 199 3.2 9.7 0.00 0.00 0.00 80 1016.6
20260505200902 15 193 1.6 4.8 0.00 0.00 0.00 83 1016.8
20260505200403 15 288 3.2 8.0 0.00 0.00 0.00 82 1016.8
20260505195902 15 316 1.6 8.0 0.00 0.00 0.00 82 1016.8
20260505195402 16 0 0.0 4.8 0.00 0.00 0.00 82 1016.9
20260505194902 15 0 0.0 3.2 0.00 0.00 0.00 82 1016.9
20260505194403 15 137 1.6 4.8 0.00 0.00 0.00 84 1016.8
20260505193903 15 120 3.2 8.0 0.00 0.00 0.00 85 1016.9
20260505191401 13 11 1.6 4.8 0.00 0.00 0.00 88 1016.9
20260505183902 13 204 1.6 6.4 0.00 0.00 0.00 89 1017.0
20260505182903 13 240 3.2 8.0 0.00 0.00 0.00 90 1017.0
20260505181902 13 238 1.6 6.4 0.00 0.00 0.00 90 1016.9
20260505181403 13 153 1.6 4.8 0.00 0.00 0.00 90 1016.9
20260505180903 13 151 1.6 3.2 0.00 0.00 0.00 92 1017.0
20260505174903 12 221 1.6 4.8 0.00 0.00 0.00 91 1016.9
20260505173902 12 175 1.6 6.4 0.00 0.00 0.00 92 1016.8
20260505172902 12 346 1.6 3.2 0.00 0.00 0.00 94 1016.7
20260505171402 12 236 1.6 6.4 0.00 0.00 0.00 94 1016.6
20260505170403 12 0 0.0 4.8 0.00 0.00 0.00 95 1016.6
20260505164903 11 334 1.6 4.8 0.00 0.00 0.00 95 1016.5
20260505163903 11 0 0.0 3.2 0.00 0.00 0.00 96 1016.5
20260505163402 11 0 0.0 1.6 0.00 0.00 0.00 96 1016.5
20260505162903 11 0 0.0 1.6 0.00 0.00 0.00 96 1016.5
20260505161901 11 0 0.0 1.6 0.00 0.00 0.00 96 1016.4
20260505161403 11 0 0.0 1.6 0.00 0.00 0.00 96 1016.4
20260505152903 11 0 0.0 3.2 0.00 0.00 0.00 96 1016.4
20260505151402 11 0 0.0 0.0 0.00 0.00 0.00 96 1016.3
20260505150902 11 0 0.0 0.0 0.00 0.00 0.00 96 1016.2
20260505121903 11 0 0.0 0.0 0.00 0.00 0.00 94 1015.2
20260505120902 11 0 0.0 0.0 0.00 0.00 0.00 93 1015.1
20260505115403 11 0 0.0 0.0 0.00 0.00 0.00 94 1015.0
20260505114903 11 0 0.0 0.0 0.00 0.00 0.00 93 1014.9
20260505113903 11 0 0.0 0.0 0.00 0.00 0.00 93 1015.0
20260505113403 11 0 0.0 0.0 0.00 0.00 0.00 93 1015.0
20260505110903 11 0 0.0 0.0 0.00 0.00 0.00 93 1014.8
20260505101404 11 0 0.0 0.0 0.00 0.00 0.00 93 1014.5
20260505100902 11 0 0.0 0.0 0.00 0.00 0.00 93 1014.5
20260505095402 11 0 0.0 0.0 0.00 0.00 0.00 93 1014.5
20260505093903 11 0 0.0 1.6 0.00 0.00 0.00 93 1014.4
20260505092903 11 0 0.0 0.0 0.00 0.00 0.00 93 1014.3
20260505091403 11 0 0.0 0.0 0.00 0.00 0.00 93 1014.3
20260505085903 11 0 0.0 0.0 0.00 0.00 0.00 92 1014.2
20260505083403 11 0 0.0 0.0 0.00 0.00 0.00 92 1014.1
20260505082903 11 0 0.0 0.0 0.00 0.00 0.00 92 1014.1
20260505081902 11 0 0.0 0.0 0.00 0.00 0.00 91 1014.0
20260505081404 11 0 0.0 0.0 0.00 0.00 0.00 91 1014.1
20260505080903 11 0 0.0 0.0 0.00 0.00 0.00 91 1014.1
20260505080404 11 0 0.0 1.6 0.00 0.00 0.00 91 1014.1
20260505075403 11 0 0.0 3.2 0.00 0.00 0.00 91 1014.1
20260505074903 11 0 0.0 3.2 0.00 0.00 0.00 91 1014.1
20260505073403 11 0 0.0 3.2 0.00 0.00 0.00 91 1013.8
20260505071903 12 0 0.0 0.0 0.00 0.00 0.00 90 1013.6
20260505071403 12 0 0.0 0.0 0.00 0.00 0.00 90 1013.5
20260505070904 12 0 0.0 0.0 0.00 0.00 0.00 89 1013.5
20260505065910 12 0 0.0 0.0 0.00 0.00 0.00 89 1013.4
20260505064903 12 0 0.0 0.0 0.00 0.00 0.00 88 1013.3
20260505063404 12 287 1.6 4.8 0.00 0.00 0.00 87 1013.2
20260505061903 13 212 3.2 9.7 0.00 0.00 0.00 86 1013.2
20260505061404 13 240 1.6 6.4 0.00 0.00 0.00 86 1013.1
20260505060903 13 278 1.6 4.8 0.00 0.00 0.00 86 1013.0